period_start,C,m1,H,J0,J1,J2,J3,J4,J5,JA,JB,JC,JD,JJ,JK,JN,#
2014-10-12 00:02:04,0.10,0.42,0.00,23.12,27.03,29.77,4.76,26.36,1012.17,2037.99,3273.82,3209.44,3473.98,350.05,346.12,5.25,0000 0000 0000 0000 000000
2014-10-12 00:07:05,0.11,0.42,0.00,23.25,27.02,29.71,4.77,26.35,1012.19,2037.99,3272.57,3208.44,3472.82,350.49,346.37,5.28,0000 0000 0000 0000 000000
2014-10-12 00:12:07,0.10,0.43,0.00,23.32,27.03,29.68,4.79,26.32,1012.20,2037.99,3271.22,3207.49,3471.67,350.05,345.86,5.31,0000 0000 0000 0000 000000
2014-10-12 00:17:08,0.11,0.43,0.00,23.22,27.04,29.73,4.74,26.32,1012.21,2037.98,3269.72,3206.50,3470.53,349.71,345.53,5.34,0000 0000 0000 0000 000000
2014-10-12 00:22:09,0.10,0.43,0.00,23.03,27.05,29.78,4.77,26.32,1012.21,2037.99,3268.44,3205.50,3469.38,349.90,346.01,5.37,0000 0000 0000 0000 000000
2014-10-12 00:27:11,0.10,0.44,0.00,23.02,27.04,29.80,4.74,26.21,1012.22,2037.99,3267.08,3204.58,3468.25,350.00,345.94,5.40,0000 0000 0000 0000 000000
2014-10-12 00:32:12,0.09,0.44,0.00,23.09,27.03,29.76,4.75,26.25,1012.20,2037.98,3265.86,3203.71,3467.16,349.87,345.94,5.43,0000 0000 0000 0000 000000
2014-10-12 00:37:13,0.12,0.44,0.00,23.20,27.03,29.75,4.73,26.39,1012.18,2037.99,3264.56,3202.66,3466.04,349.65,345.65,5.46,0000 0000 0000 0000 000000
2014-10-12 00:42:15,0.07,0.45,0.00,23.28,27.03,29.71,4.74,26.34,1012.07,2037.99,3263.32,3201.84,3464.99,350.02,345.69,5.48,0000 0000 0000 0000 000000
2014-10-12 00:47:16,0.09,0.45,0.00,23.32,27.04,29.72,4.73,26.23,1011.94,2037.99,3262.24,3200.93,3463.92,350.24,345.74,5.51,0000 0000 0000 0000 000000
2014-10-12 00:52:18,0.14,0.45,0.00,23.29,27.05,29.71,4.76,26.25,1011.78,2037.99,3260.76,3199.78,3462.64,350.50,346.12,5.54,0000 0000 0000 0000 000000
2014-10-12 00:57:19,0.10,0.46,0.00,23.06,27.05,29.79,4.77,26.19,1011.75,2037.99,3259.32,3198.78,3461.34,350.16,346.17,5.57,0000 0000 0000 0000 000000
2014-10-12 01:02:20,0.09,0.46,0.00,23.00,27.05,29.79,4.81,26.28,1011.73,2037.99,3257.95,3197.88,3460.24,350.39,346.51,5.60,0000 0000 0000 0000 000000
2014-10-12 01:07:21,0.10,0.46,0.00,23.04,27.05,29.78,4.82,26.26,1011.73,2037.99,3256.68,3196.92,3459.18,350.17,346.07,5.63,0000 0000 0000 0000 000000
2014-10-12 01:12:23,0.09,0.46,0.00,23.06,27.04,29.76,4.82,26.27,1011.73,2037.99,3255.37,3196.03,3458.07,350.20,346.14,5.66,0000 0000 0000 0000 000000
2014-10-12 01:17:24,0.10,0.47,0.00,23.19,27.03,29.76,4.74,26.22,1011.73,2037.99,3254.15,3195.13,3457.03,350.06,345.99,5.69,0000 0000 0000 0000 000000
2014-10-12 01:22:26,0.12,0.47,0.00,23.31,27.04,29.71,4.73,26.27,1011.73,2037.99,3252.77,3194.10,3455.89,349.99,345.45,5.72,0000 0000 0000 0000 000000
2014-10-12 01:27:27,0.10,0.47,0.00,23.37,27.05,29.70,4.80,26.36,1011.72,2037.99,3251.52,3193.15,3454.83,350.24,345.62,5.75,0000 0000 0000 0000 000000
2014-10-12 01:32:28,0.11,0.48,0.00,23.24,27.05,29.73,4.70,26.25,1011.69,2037.98,3250.13,3192.16,3453.65,349.69,345.33,5.78,0000 0000 0000 0000 000000
2014-10-12 01:37:29,0.12,0.48,0.00,23.05,27.05,29.77,4.74,26.38,1011.63,2037.98,3248.63,3191.15,3452.47,349.80,345.72,5.81,0000 0000 0000 0000 000000
2014-10-12 01:42:31,0.09,0.48,0.00,23.03,27.05,29.79,4.75,26.32,1011.51,2037.98,3247.37,3190.11,3451.32,350.16,346.11,5.84,0000 0000 0000 0000 000000
2014-10-12 01:47:32,0.14,0.49,0.00,23.06,27.05,29.76,4.71,26.26,1011.45,2037.98,3245.74,3188.99,3449.92,350.23,346.09,5.87,0000 0000 0000 0000 000000
2014-10-12 01:52:33,0.10,0.49,0.00,23.08,27.05,29.76,4.74,26.25,1011.38,2037.98,3244.37,3187.91,3448.69,349.44,345.25,5.89,0000 0000 0000 0000 000000
2014-10-12 01:57:35,0.11,0.49,0.00,23.09,27.05,29.75,4.75,26.18,1011.32,2037.98,3242.92,3186.96,3447.55,349.96,345.69,5.92,0000 0000 0000 0000 000000
2014-10-12 02:02:36,0.10,0.50,0.00,23.14,27.04,29.76,4.73,26.15,1011.28,2037.97,3241.59,3185.97,3446.41,349.92,345.54,5.95,0000 0000 0000 0000 000000
2014-10-12 02:07:37,0.10,0.50,0.00,23.24,27.04,29.75,4.76,26.19,1011.27,2037.97,3240.32,3185.05,3445.28,349.99,345.48,5.98,0000 0000 0000 0000 000000
2014-10-12 02:12:38,0.09,0.50,0.00,23.38,27.05,29.71,4.81,26.39,1011.26,2037.98,3239.21,3184.23,3444.40,350.13,345.54,6.01,0000 0000 0000 0000 000000
2014-10-12 02:17:39,0.10,0.51,0.00,23.33,27.05,29.73,4.68,26.18,1011.27,2037.99,3237.86,3183.37,3443.31,349.69,345.26,6.04,0000 0000 0000 0000 000000
2014-10-12 02:22:41,0.11,0.51,0.00,23.11,27.05,29.76,4.77,26.24,1011.25,2037.98,3236.51,3182.40,3442.21,349.94,345.81,6.07,0000 0000 0000 0000 000000
2014-10-12 02:27:42,0.10,0.51,0.00,23.03,27.05,29.79,4.70,26.19,1011.25,2037.98,3235.14,3181.49,3441.12,350.06,345.67,6.10,0000 0000 0000 0000 000000
2014-10-12 02:32:43,0.11,0.52,0.00,23.08,27.05,29.76,4.76,26.29,1011.25,2037.99,3233.83,3180.50,3440.03,350.39,346.12,6.13,0000 0000 0000 0000 000000
2014-10-12 02:37:44,0.11,0.52,0.00,23.11,27.05,29.74,4.75,26.32,1011.25,2037.99,3232.50,3179.62,3438.88,349.97,345.74,6.16,0000 0000 0000 0000 000000
2014-10-12 02:42:46,0.09,0.52,0.00,23.09,27.05,29.75,4.81,26.30,1011.25,2037.99,3231.18,3178.69,3437.82,350.31,346.11,6.19,0000 0000 0000 0000 000000
2014-10-12 02:47:46,0.09,0.53,0.00,23.10,27.04,29.74,4.79,26.25,1011.16,2037.98,3229.88,3177.82,3436.81,349.85,345.54,6.22,0000 0000 0000 0000 000000
2014-10-12 02:52:47,0.10,0.53,0.00,23.17,27.04,29.74,4.73,26.27,1010.91,2037.99,3228.64,3176.91,3435.77,350.12,345.82,6.25,0000 0000 0000 0000 000000
2014-10-12 02:57:49,0.09,0.53,0.00,23.27,27.04,29.71,4.73,26.27,1011.00,2037.99,3227.50,3176.00,3434.80,349.66,345.11,6.28,0000 0000 0000 0000 000000
2014-10-12 03:02:50,0.10,0.53,0.00,23.40,27.05,29.71,4.70,26.32,1010.88,2037.99,3226.20,3175.14,3433.75,349.66,344.93,6.30,0000 0000 0000 0000 000000
2014-10-12 03:07:51,0.11,0.54,0.00,23.35,27.05,29.73,4.70,26.19,1010.78,2037.99,3224.82,3174.19,3432.67,350.21,345.45,6.33,0000 0000 0000 0000 000000
2014-10-12 03:12:53,0.11,0.54,0.00,23.13,27.05,29.80,4.64,26.32,1010.77,2037.99,3223.49,3173.27,3431.55,350.06,345.59,6.36,0000 0000 0000 0000 000000
2014-10-12 03:17:54,0.09,0.54,0.00,23.05,27.05,29.79,4.72,26.38,1010.76,2037.97,3222.24,3172.39,3430.49,349.71,345.36,6.39,0000 0000 0000 0000 000000
2014-10-12 03:22:55,0.11,0.55,0.00,23.08,27.05,29.76,4.76,26.25,1010.76,2037.98,3220.88,3171.52,3429.50,350.16,345.77,6.42,0000 0000 0000 0000 000000
2014-10-12 03:27:56,0.15,0.55,0.00,23.10,27.05,29.76,4.71,26.23,1010.76,2037.99,3219.24,3170.35,3428.13,349.88,345.62,6.45,0000 0000 0000 0000 000000
2014-10-12 03:32:57,0.43,0.56,0.00,23.13,27.05,29.75,4.71,26.24,1010.76,2037.98,3214.92,3166.95,3424.40,350.06,345.64,6.48,0000 0000 0000 0000 000000
2014-10-12 03:37:58,0.44,0.57,0.00,23.12,27.05,29.74,4.78,26.42,1010.76,2037.98,3209.71,3162.82,3419.94,349.68,345.16,6.51,0000 0000 0000 0000 000000
2014-10-12 03:42:59,0.44,0.59,0.00,23.10,27.05,29.76,4.75,26.25,1010.75,2037.97,3204.47,3158.77,3415.57,349.78,345.33,6.54,0000 0000 0000 0000 000000
2014-10-12 03:48:00,0.42,0.60,0.00,23.12,27.05,29.75,4.76,26.18,1010.75,2037.95,3199.53,3154.87,3411.32,350.18,345.78,6.57,0000 0000 0000 0000 000000
2014-10-12 03:53:02,0.44,0.61,0.00,23.10,27.04,29.71,4.74,26.27,1010.73,2037.96,3194.62,3150.98,3407.06,349.98,345.42,6.60,0000 0000 0000 0000 000000
2014-10-12 03:58:03,0.47,0.63,0.00,23.14,27.04,29.72,4.76,26.22,1010.74,2037.97,3189.11,3146.81,3402.56,349.83,345.39,6.63,0000 0000 0000 0000 000000
2014-10-12 04:03:04,0.46,0.64,0.00,23.29,27.04,29.72,4.74,26.28,1010.75,2037.97,3183.55,3142.63,3398.06,349.96,345.31,6.66,0000 0000 0000 0000 000000
2014-10-12 04:08:06,0.37,0.65,0.00,23.42,27.05,29.71,4.77,26.26,1010.75,2037.97,3178.91,3139.11,3394.23,349.99,345.23,6.69,0000 0000 0000 0000 000000
2014-10-12 04:13:07,0.32,0.66,0.00,23.42,27.05,29.72,4.76,26.24,1010.75,2037.95,3174.93,3136.07,3391.03,350.18,345.49,6.71,0000 0000 0000 0000 000000
2014-10-12 04:18:08,0.21,0.67,0.00,23.19,27.05,29.78,4.80,26.29,1010.72,2037.98,3171.86,3134.12,3388.70,350.25,345.80,6.74,0000 0000 0000 0000 000000
2014-10-12 04:23:09,0.25,0.68,0.00,23.09,27.06,29.80,4.73,26.25,1010.60,2037.96,3168.81,3132.08,3386.37,349.56,345.10,6.77,0000 0000 0000 0000 000000
2014-10-12 04:28:11,0.22,0.68,0.00,23.07,27.06,29.79,4.75,26.26,1010.66,2037.95,3165.80,3130.06,3384.14,350.25,345.80,6.80,0000 0000 0000 0000 000000
2014-10-12 04:33:12,0.16,0.69,0.00,23.09,27.06,29.77,4.71,26.16,1010.70,2037.96,3163.79,3128.69,3382.61,349.42,344.87,6.83,0000 0000 0000 0000 000000
2014-10-12 04:38:13,0.12,0.69,0.00,23.12,27.05,29.76,4.75,26.32,1010.54,2037.97,3162.25,3127.61,3381.36,350.29,345.75,6.86,0000 0000 0000 0000 000000
2014-10-12 04:43:14,0.11,0.70,0.00,23.14,27.05,29.77,4.63,26.14,1010.35,2037.93,3160.77,3126.58,3380.10,349.38,344.60,6.89,0000 0000 0000 0000 000000
2014-10-12 04:48:16,0.11,0.70,0.00,23.13,27.05,29.76,4.79,26.22,1010.44,2037.95,3159.50,3125.66,3379.03,349.86,345.43,6.92,0000 0000 0000 0000 000000
2014-10-12 04:53:17,0.09,0.70,0.00,23.13,27.05,29.76,4.76,26.27,1010.40,2037.96,3158.17,3124.81,3377.98,350.12,345.31,6.95,0000 0000 0000 0000 000000
2014-10-12 04:58:18,0.11,0.71,0.00,23.17,27.05,29.75,4.69,26.23,1010.30,2037.97,3156.84,3123.90,3376.92,349.79,345.13,6.98,0000 0000 0000 0000 000000
2014-10-12 05:03:19,0.12,0.71,0.00,23.15,27.05,29.77,4.69,26.21,1010.31,2037.95,3155.48,3122.93,3375.83,349.81,345.11,7.01,0000 0000 0000 0000 000000
2014-10-12 05:08:21,0.09,0.71,0.00,23.14,27.05,29.75,4.71,26.20,1010.28,2037.96,3154.21,3122.04,3374.87,350.06,345.19,7.04,0000 0000 0000 0000 000000
2014-10-12 05:13:22,0.10,0.72,0.00,23.14,27.05,29.74,4.70,26.23,1010.28,2037.98,3153.09,3121.18,3373.86,350.25,345.51,7.07,0000 0000 0000 0000 000000
2014-10-12 05:18:23,0.11,0.72,0.00,23.14,27.05,29.75,4.71,26.14,1010.30,2037.98,3151.84,3120.39,3372.85,349.60,344.90,7.10,0000 0000 0000 0000 000000
2014-10-12 05:23:25,0.12,0.72,0.00,23.15,27.04,29.74,4.75,26.25,1010.28,2037.99,3150.51,3119.44,3371.75,350.01,345.36,7.13,0000 0000 0000 0000 000000
2014-10-12 05:28:26,0.10,0.72,0.00,23.16,27.04,29.72,4.76,26.24,1010.28,2037.98,3149.28,3118.56,3370.72,349.76,345.02,7.15,0000 0000 0000 0000 000000
2014-10-12 05:33:27,0.11,0.73,0.00,23.15,27.03,29.73,4.70,26.18,1010.28,2037.97,3147.95,3117.56,3369.56,349.75,344.93,7.18,0000 0000 0000 0000 000000
2014-10-12 05:38:28,0.12,0.73,0.00,23.13,27.02,29.75,4.72,26.29,1010.27,2037.97,3146.49,3116.52,3368.38,350.03,345.43,7.21,0000 0000 0000 0000 000000
2014-10-12 05:43:29,0.10,0.73,0.00,23.15,27.02,29.73,4.71,26.26,1010.27,2037.98,3145.18,3115.67,3367.31,350.06,345.29,7.24,0000 0000 0000 0000 000000
2014-10-12 05:48:31,0.15,0.74,0.00,23.17,27.02,29.71,4.73,26.15,1010.28,2037.99,3143.29,3114.44,3365.88,350.12,345.46,7.27,0000 0000 0000 0000 000000
2014-10-12 05:53:32,0.13,0.74,0.00,23.26,27.02,29.71,4.73,26.21,1010.27,2037.99,3141.72,3113.30,3364.69,349.58,344.93,7.30,0000 0000 0000 0000 000000
2014-10-12 05:58:33,0.10,0.74,0.00,23.34,27.02,29.71,4.76,26.23,1010.27,2037.99,3140.51,3112.49,3363.62,350.34,345.25,7.33,0000 0000 0000 0000 000000
2014-10-12 06:03:35,0.11,0.75,0.00,23.44,27.02,29.70,4.72,26.18,1010.27,2037.99,3139.09,3111.53,3362.53,349.88,344.80,7.36,0000 0000 0000 0000 000000
2014-10-12 06:08:36,0.12,0.75,0.00,23.29,27.03,29.72,4.73,26.17,1010.27,2037.99,3137.69,3110.53,3361.37,350.14,345.40,7.39,0000 0000 0000 0000 000000
2014-10-12 06:13:38,0.10,0.76,0.00,23.11,27.03,29.78,4.72,26.22,1010.27,2037.99,3136.42,3109.55,3360.25,349.73,345.12,7.42,0000 0000 0000 0000 000000
2014-10-12 06:18:39,0.10,0.76,0.00,23.06,27.03,29.77,4.74,26.24,1010.27,2037.98,3135.05,3108.59,3359.09,349.85,345.31,7.45,0000 0000 0000 0000 000000
2014-10-12 06:23:40,0.13,0.76,0.00,23.08,27.02,29.76,4.71,26.10,1010.27,2037.99,3133.73,3107.57,3357.86,350.03,345.35,7.48,0000 0000 0000 0000 000000
2014-10-12 06:28:42,0.09,0.77,0.00,23.10,27.02,29.74,4.71,26.23,1010.27,2037.99,3132.53,3106.73,3356.87,349.95,345.35,7.51,0000 0000 0000 0000 000000
2014-10-12 06:33:43,0.08,0.77,0.00,23.14,27.02,29.73,4.73,26.13,1010.27,2037.99,3131.22,3105.89,3355.89,349.65,344.84,7.53,0000 0000 0000 0000 000000
2014-10-12 06:38:44,0.13,0.77,0.00,23.13,27.02,29.73,4.73,26.31,1010.27,2037.99,3129.90,3104.89,3354.74,350.00,345.40,7.56,0000 0000 0000 0000 000000
2014-10-12 06:43:46,0.11,0.78,0.00,23.12,27.02,29.73,4.75,26.23,1010.27,2037.99,3128.56,3103.92,3353.66,349.83,345.41,7.59,0000 0000 0000 0000 000000
2014-10-12 06:48:47,0.10,0.78,0.00,23.13,27.02,29.70,4.73,26.20,1010.25,2037.99,3127.22,3102.97,3352.52,350.34,345.62,7.62,0000 0000 0000 0000 000000
2014-10-12 06:53:48,0.10,0.78,0.00,23.18,27.02,29.73,4.75,26.18,1010.20,2037.99,3125.97,3102.06,3351.57,350.16,345.34,7.65,0000 0000 0000 0000 000000
2014-10-12 06:58:49,0.10,0.78,0.00,23.14,27.02,29.72,4.74,26.25,1010.21,2037.99,3124.79,3101.21,3350.65,349.95,345.35,7.68,0000 0000 0000 0000 000000
2014-10-12 07:03:50,0.10,0.79,0.00,23.15,27.02,29.70,4.72,26.24,1010.12,2037.98,3123.61,3100.41,3349.72,349.99,345.45,7.71,0000 0000 0000 0000 000000
2014-10-12 07:08:52,0.08,0.79,0.00,23.21,27.02,29.71,4.71,26.17,1009.87,2037.99,3122.54,3099.75,3348.83,349.83,345.02,7.74,0000 0000 0000 0000 000000
2014-10-12 07:13:53,0.07,0.79,0.00,23.21,27.01,29.71,4.73,26.24,1009.85,2037.99,3121.48,3099.00,3347.97,349.97,345.08,7.77,0000 0000 0000 0000 000000
2014-10-12 07:18:54,0.10,0.80,0.00,23.18,27.01,29.70,4.71,26.23,1009.86,2037.98,3120.31,3098.13,3347.06,349.46,344.64,7.80,0000 0000 0000 0000 000000
2014-10-12 07:23:55,0.09,0.80,0.00,23.19,27.00,29.70,4.78,26.14,1010.01,2037.99,3119.23,3097.37,3346.19,350.21,345.34,7.83,0000 0000 0000 0000 000000
2014-10-12 07:28:57,0.09,0.80,0.00,23.16,27.00,29.73,4.77,26.28,1009.97,2037.99,3118.06,3096.70,3345.37,349.99,345.04,7.86,0000 0000 0000 0000 000000
2014-10-12 07:33:58,0.07,0.80,0.00,23.11,27.00,29.73,4.75,26.13,1009.89,2037.99,3116.94,3096.01,3344.52,349.76,345.01,7.89,0000 0000 0000 0000 000000
2014-10-12 07:38:59,0.11,0.81,0.00,23.12,27.00,29.73,4.71,26.27,1009.86,2037.99,3115.77,3095.25,3343.61,349.70,344.96,7.92,0000 0000 0000 0000 000000
2014-10-12 07:44:00,0.08,0.81,0.00,23.17,27.00,29.70,4.67,26.16,1009.83,2037.99,3114.74,3094.46,3342.76,349.45,344.70,7.94,0000 0000 0000 0000 000000
2014-10-12 07:49:01,0.10,0.81,0.00,23.17,27.00,29.72,4.77,26.20,1009.88,2037.99,3113.57,3093.62,3341.77,350.00,345.09,7.97,0000 0000 0000 0000 000000
2014-10-12 07:54:03,0.11,0.82,0.00,23.13,27.00,29.72,4.79,26.24,1009.84,2037.99,3112.31,3092.59,3340.61,350.26,345.58,8.00,0000 0000 0000 0000 000000
2014-10-12 07:59:04,0.09,0.82,0.00,23.12,27.00,29.71,4.73,26.13,1009.80,2037.99,3111.02,3091.76,3339.65,349.56,344.86,8.03,0000 0000 0000 0000 000000
2014-10-12 08:04:05,0.09,0.82,0.00,23.13,27.00,29.71,4.79,26.13,1009.81,2037.99,3109.85,3090.92,3338.67,350.17,345.44,8.06,0000 0000 0000 0000 000000
2014-10-12 08:09:06,0.09,0.82,0.00,23.12,27.00,29.69,4.76,26.16,1009.80,2037.99,3108.79,3090.08,3337.84,350.12,345.49,8.09,0000 0000 0000 0000 000000
2014-10-12 08:14:07,0.12,0.83,0.00,23.11,27.00,29.69,4.73,26.22,1009.80,2037.99,3107.52,3089.23,3336.75,349.70,344.91,8.12,0000 0000 0000 0000 000000
2014-10-12 08:19:08,0.11,0.83,0.00,23.12,27.00,29.70,4.69,26.16,1009.79,2037.99,3106.25,3088.34,3335.66,349.77,344.98,8.15,0000 0000 0000 0000 000000
2014-10-12 08:24:09,0.11,0.83,0.00,23.10,27.00,29.71,4.76,26.18,1009.79,2037.99,3104.90,3087.49,3334.66,350.38,345.49,8.18,0000 0000 0000 0000 000000
2014-10-12 08:29:10,0.10,0.84,0.00,23.13,27.00,29.71,4.77,26.22,1009.80,2037.99,3103.63,3086.67,3333.64,349.69,345.03,8.21,0000 0000 0000 0000 000000
2014-10-12 08:34:12,0.12,0.84,0.00,23.14,27.00,29.70,4.77,26.21,1009.80,2037.99,3102.21,3085.60,3332.42,350.43,345.61,8.24,0000 0000 0000 0000 000000
2014-10-12 08:39:13,0.14,0.84,0.00,23.13,26.99,29.69,4.71,26.30,1009.79,2037.99,3100.62,3084.48,3331.11,350.13,345.35,8.27,0000 0000 0000 0000 000000
2014-10-12 08:44:14,0.12,0.85,0.00,23.12,26.99,29.72,4.73,26.18,1009.79,2037.99,3099.23,3083.43,3329.86,349.98,345.04,8.30,0000 0000 0000 0000 000000
2014-10-12 08:49:15,0.13,0.85,0.00,23.15,26.98,29.69,4.68,26.12,1009.80,2037.99,3097.69,3082.38,3328.65,349.71,344.99,8.33,0000 0000 0000 0000 000000
2014-10-12 08:54:17,0.11,0.86,0.00,23.19,26.98,29.70,4.71,26.25,1009.80,2037.99,3096.35,3081.36,3327.51,349.81,344.92,8.36,0000 0000 0000 0000 000000
2014-10-12 08:59:18,0.12,0.86,0.00,23.13,26.98,29.70,4.75,26.19,1009.79,2037.99,3094.76,3080.27,3326.29,350.05,345.25,8.38,0000 0000 0000 0000 000000
2014-10-12 09:04:19,0.12,0.86,0.00,23.10,26.97,29.71,4.79,26.12,1009.79,2037.99,3093.26,3079.21,3324.98,350.02,345.26,8.41,0000 0000 0000 0000 000000
2014-10-12 09:09:21,0.13,0.87,0.00,23.14,26.97,29.71,4.84,26.35,1009.79,2037.99,3091.72,3078.09,3323.72,350.06,345.34,8.44,0000 0000 0000 0000 000000
2014-10-12 09:14:22,0.11,0.87,0.00,23.15,26.97,29.70,4.73,26.17,1009.79,2037.99,3090.27,3077.07,3322.47,350.29,345.27,8.47,0000 0000 0000 0000 000000
2014-10-12 09:19:24,0.13,0.87,0.00,23.11,26.97,29.71,4.75,26.20,1009.79,2037.99,3088.74,3075.99,3321.29,349.94,345.06,8.50,0000 0000 0000 0000 000000
2014-10-12 09:24:25,0.10,0.88,0.00,23.10,26.97,29.68,4.65,26.20,1009.80,2037.99,3087.44,3074.96,3320.08,350.04,345.32,8.53,0000 0000 0000 0000 000000
2014-10-12 09:29:26,0.12,0.88,0.00,23.16,26.97,29.68,4.77,26.24,1009.79,2037.99,3085.97,3073.99,3318.91,349.97,345.24,8.56,0000 0000 0000 0000 000000
2014-10-12 09:34:27,0.14,0.88,0.00,23.26,26.97,29.67,4.64,26.23,1009.79,2037.99,3084.61,3072.94,3317.68,349.59,344.74,8.59,0000 0000 0000 0000 000000
2014-10-12 09:39:28,0.11,0.89,0.00,23.38,26.98,29.68,4.73,26.39,1009.78,2037.98,3083.17,3071.93,3316.38,350.00,344.93,8.62,0000 0000 0000 0000 000000
2014-10-12 09:44:30,0.11,0.89,0.00,23.33,27.00,29.70,4.67,26.28,1009.78,2037.99,3081.77,3071.01,3315.42,349.69,344.87,8.65,0000 0000 0000 0000 000000
2014-10-12 09:49:31,0.11,0.90,0.00,23.11,27.00,29.74,4.70,26.32,1009.78,2037.99,3080.35,3069.99,3314.08,350.08,345.28,8.68,0000 0000 0000 0000 000000
2014-10-12 09:54:32,0.14,0.90,0.00,23.04,27.00,29.74,4.73,26.25,1009.78,2037.98,3078.76,3068.94,3312.81,349.76,345.07,8.71,0000 0000 0000 0000 000000
2014-10-12 09:59:34,0.11,0.90,0.00,23.08,27.00,29.75,4.70,26.37,1009.78,2037.99,3077.45,3067.99,3311.73,349.73,344.99,8.74,0000 0000 0000 0000 000000
2014-10-12 10:04:35,0.13,0.91,0.00,23.07,27.00,29.73,4.72,26.34,1009.78,2037.99,3075.91,3066.99,3310.50,349.52,344.88,8.76,0000 0000 0000 0000 000000
2014-10-12 10:09:36,0.14,0.91,0.00,23.10,27.00,29.71,4.70,26.25,1009.78,2037.99,3074.28,3065.80,3309.22,350.09,345.15,8.79,0000 0000 0000 0000 000000
2014-10-12 10:14:37,0.17,0.92,0.00,23.09,27.00,29.69,4.70,26.32,1009.78,2037.99,3072.34,3064.45,3307.64,349.85,345.11,8.82,0000 0000 0000 0000 000000
2014-10-12 10:19:38,0.18,0.92,0.00,23.12,27.00,29.72,4.70,26.28,1009.78,2037.99,3070.34,3062.89,3305.81,349.68,344.89,8.85,0000 0000 0000 0000 000000
2014-10-12 10:24:39,0.17,0.93,0.00,23.09,27.00,29.70,4.70,26.23,1009.78,2037.99,3068.33,3061.46,3304.14,350.07,345.41,8.88,0000 0000 0000 0000 000000
2014-10-12 10:29:40,0.15,0.93,0.00,23.10,27.00,29.71,4.79,26.41,1009.78,2037.99,3066.48,3060.11,3302.68,350.19,345.42,8.91,0000 0000 0000 0000 000000
2014-10-12 10:34:41,0.12,0.93,0.00,23.14,27.00,29.71,4.83,26.50,1009.78,2037.98,3065.00,3059.05,3301.47,350.33,345.55,8.94,0000 0000 0000 0000 000000
2014-10-12 10:39:43,0.12,0.94,0.00,23.17,26.99,29.69,4.73,26.41,1009.76,2037.98,3063.51,3058.02,3300.20,350.51,345.58,8.97,0000 0000 0000 0000 000000
2014-10-12 10:44:44,0.11,0.94,0.00,23.23,27.00,29.69,4.67,26.38,1009.74,2037.99,3062.20,3057.07,3299.11,349.74,344.81,9.00,0000 0000 0000 0000 000000
2014-10-12 10:49:45,0.12,0.95,0.00,23.36,27.00,29.69,4.79,26.41,1009.67,2037.99,3060.75,3056.10,3297.96,350.32,345.22,9.03,0000 0000 0000 0000 000000
2014-10-12 10:54:46,0.12,0.95,0.00,23.29,27.00,29.72,4.72,26.36,1009.55,2037.99,3059.28,3055.07,3296.78,349.61,344.47,9.06,0000 0000 0000 0000 000000
2014-10-12 10:59:47,0.13,0.95,0.00,23.09,27.00,29.77,4.83,26.56,1009.43,2037.97,3057.71,3053.91,3295.51,350.63,345.92,9.09,0000 0000 0000 0000 000000
2014-10-12 11:04:48,0.11,0.96,0.00,23.01,27.00,29.77,4.80,26.45,1009.35,2037.98,3056.38,3052.97,3294.29,350.25,345.44,9.12,0000 0000 0000 0000 000000
2014-10-12 11:09:50,0.14,0.96,0.00,23.03,27.00,29.75,4.77,26.37,1009.32,2037.98,3054.86,3051.91,3293.03,350.25,345.52,9.15,0000 0000 0000 0000 000000
2014-10-12 11:14:51,0.11,0.96,0.00,23.09,27.00,29.73,4.71,26.25,1009.31,2037.98,3053.46,3050.89,3291.87,349.93,344.93,9.17,0000 0000 0000 0000 000000
2014-10-12 11:19:52,0.13,0.97,0.00,23.08,27.00,29.73,4.74,26.31,1009.30,2037.98,3052.07,3049.89,3290.69,350.27,345.48,9.20,0000 0000 0000 0000 000000
2014-10-12 11:24:54,0.12,0.97,0.00,23.07,27.00,29.72,4.76,26.38,1009.30,2037.98,3050.56,3048.95,3289.51,350.23,345.17,9.23,0000 0000 0000 0000 000000
2014-10-12 11:29:55,0.10,0.98,0.00,23.10,27.00,29.69,4.75,26.32,1009.29,2037.99,3049.16,3048.01,3288.41,350.25,345.27,9.26,0000 0000 0000 0000 000000
2014-10-12 11:34:56,0.12,0.98,0.00,23.10,27.00,29.70,4.74,26.39,1009.29,2037.99,3047.78,3047.02,3287.29,349.88,345.06,9.29,0000 0000 0000 0000 000000
2014-10-12 11:39:57,0.11,0.98,0.00,23.10,27.00,29.71,4.83,26.43,1009.29,2037.99,3046.35,3046.00,3286.06,350.40,345.56,9.32,0000 0000 0000 0000 000000
2014-10-12 11:44:59,0.10,0.99,0.00,23.09,27.00,29.69,4.77,26.28,1009.29,2037.99,3045.18,3045.09,3284.99,349.93,345.01,9.35,0000 0000 0000 0000 000000
2014-10-12 11:50:00,0.12,0.99,0.00,23.12,27.00,29.69,4.72,26.36,1009.29,2037.99,3043.83,3044.14,3283.87,349.89,344.85,9.38,0000 0000 0000 0000 000000
2014-10-12 11:55:01,0.12,0.99,0.00,23.15,27.00,29.70,4.76,26.31,1009.29,2037.98,3042.52,3043.17,3282.75,350.25,345.28,9.41,0000 0000 0000 0000 000000
2014-10-12 12:00:03,0.12,1.00,0.00,23.11,27.00,29.69,4.75,26.40,1009.29,2037.97,3041.13,3042.16,3281.60,350.03,345.00,9.44,0000 0000 0000 0000 000000
2014-10-12 12:05:04,0.11,1.00,0.00,23.14,27.00,29.70,4.76,26.35,1009.29,2037.97,3039.92,3041.25,3280.65,350.05,345.24,9.47,0000 0000 0000 0000 000000
2014-10-12 12:10:05,0.12,1.00,0.00,23.24,26.99,29.70,4.81,26.29,1009.29,2037.99,3038.67,3040.42,3279.60,350.39,344.86,9.50,0000 0000 0000 0000 000000
2014-10-12 12:15:06,0.11,1.01,0.00,23.37,27.00,29.67,4.75,26.32,1009.28,2037.98,3037.35,3039.53,3278.40,350.15,344.76,9.53,0000 0000 0000 0000 000000
2014-10-12 12:20:08,0.12,1.01,0.00,23.31,27.00,29.69,4.73,26.30,1009.29,2037.98,3035.91,3038.49,3277.31,349.80,344.52,9.56,0000 0000 0000 0000 000000
2014-10-12 12:25:09,0.12,1.01,0.00,23.09,27.00,29.75,4.71,26.38,1009.28,2037.97,3034.49,3037.46,3276.08,349.69,344.77,9.58,0000 0000 0000 0000 000000
2014-10-12 12:30:10,0.11,1.02,0.00,23.00,27.00,29.76,4.69,26.35,1009.15,2037.96,3033.16,3036.47,3274.95,350.07,345.27,9.61,0000 0000 0000 0000 000000
2014-10-12 12:35:12,0.10,1.02,0.00,23.03,27.00,29.74,4.75,26.27,1008.97,2037.95,3031.81,3035.63,3273.87,350.15,344.89,9.64,0000 0000 0000 0000 000000
2014-10-12 12:40:13,0.12,1.02,0.00,23.08,27.00,29.71,4.69,26.35,1008.91,2037.96,3030.48,3034.67,3272.86,349.68,344.65,9.67,0000 0000 0000 0000 000000
2014-10-12 12:45:14,0.07,1.03,0.00,23.15,27.00,29.69,4.68,26.32,1008.85,2037.97,3029.41,3033.92,3271.95,349.59,344.45,9.70,0000 0000 0000 0000 000000
2014-10-12 12:50:16,0.10,1.03,0.00,23.29,27.00,29.67,4.72,26.40,1008.82,2037.97,3028.21,3033.06,3271.00,349.78,344.46,9.73,0000 0000 0000 0000 000000
2014-10-12 12:55:17,0.12,1.03,0.00,23.33,27.01,29.71,4.70,26.38,1008.81,2037.96,3026.89,3032.16,3269.94,349.81,344.31,9.76,0000 0000 0000 0000 000000
2014-10-12 13:00:18,0.10,1.04,0.00,23.13,27.02,29.75,4.72,26.32,1008.81,2037.97,3025.66,3031.39,3268.96,349.94,344.71,9.79,0000 0000 0000 0000 000000
2014-10-12 13:05:20,0.11,1.04,0.00,23.01,27.02,29.78,4.67,26.31,1008.80,2037.97,3024.49,3030.48,3267.93,349.66,344.61,9.82,0000 0000 0000 0000 000000